Terminal Aerodrome Forecast
Issued by NWS

Home | Current Version | Previous Version | Text Only | Print | Product List | Glossary On
Versions: 1 2 3 4 5 6 7 8 9 10 11 12 13 14 15 16 17
009
FTUS46 KMTR 071720
TAFSTS
TAF
KSTS 071720Z 0718/0818 06004KT P6SM VCSH SCT040 BKN150 OVC200
     FM072100 08004KT 6SM -RA BR BKN035 OVC050
      TEMPO 0800/0804 4SM RA BR BKN025 OVC040
     FM080500 06009KT 5SM -RA BR BKN020 OVC035
     FM080800 VRB03KT 3SM -RA BR SCT007 BKN015 OVC025
      TEMPO 0812/0816 1/2SM -DZ FG OVC007=

USA.gov is the U.S. government's official web portal to all federal, state and local government web resources and services.